Flag for Canada Weather past 2 weeks in Shawinigan, Quebec, Canada

Now
51 °F

Cool.


Feels Like: 51 °F
Forecast: 46 / 64 °F
Wind: 1 mph from Northeast

Location: Shawinigan CS

Current Time: Oct 1, 2014 at 8:36:19 PM

Latest Report: Oct 1, 2014 at 8:00 PM


Visibility: N/A

Pressure: 30.19 "Hg

Humidity: 91%

Dew point: 48 °F

Location of ShawiniganLocation

Historic Weather in Shawinigan — Graph

°F

Shawinigan temperature yesterday

Maximum temperature yesterday: 53 °F (at 5:00 PM)
Minimum temperature yesterday: 46 °F (at 12:00 AM)
Average temperature yesterday: 49 °F

Past Weeks' High & Low Weather Summary

 TemperatureHumidityPressure
High80 °F (Sep 27, 4:00 PM)100% (Sep 25, 4:00 AM)30.60 "Hg (Sep 25, 4:00 AM)
Low30 °F (Sep 19, 5:00 AM)27% (Sep 19, 5:00 PM)29.41 "Hg (Sep 22, 3:00 AM)
Average53 °F80%30.08 "Hg
* Reported Sep 16 7:00 PM — Oct 1 7:00 PM, Shawinigan, Weather by CustomWeather, © 2014

Note: Actual official high and low records may vary slightly from our data, if they occured in-between our weather recording intervals... More about our weather records

Advertising

Shawinigan weather history for previous 24 hours

 ConditionsComfort  
Time TempWeatherWind HumidityBarometerVisibility
7:00 PM
Oct 1
52 °FCool.3 mph87%30.18 "HgN/A
6:00 PM55 °FCool.5 mph82%30.17 "HgN/A
5:00 PM57 °FCool.7 mph75%30.16 "HgN/A
4:00 PM58 °FCool.7 mph72%30.16 "HgN/A
3:00 PM57 °FCool.6 mph74%30.16 "HgN/A
2:00 PM56 °FCool.7 mph78%30.17 "HgN/A
1:00 PM53 °FCool.7 mph83%30.18 "HgN/A
12:00 PM53 °FCool.5 mph84%30.20 "HgN/A
11:00 AM50 °FCool.6 mph87%30.22 "HgN/A
10:00 AM49 °FCool.6 mph90%30.21 "HgN/A
9:00 AM49 °FCool.5 mph91%30.20 "HgN/A
8:00 AM48 °FCool.3 mph90%30.18 "HgN/A
7:00 AM48 °FCool.3 mph91%30.16 "HgN/A
6:00 AM48 °FCool.3 mph91%30.14 "HgN/A
5:00 AM48 °FCool.5 mph92%30.14 "HgN/A
4:00 AM49 °FCool.6 mph93%30.13 "HgN/A
3:00 AM49 °FCool.5 mph96%30.13 "HgN/A
2:00 AM49 °FCool.5 mph89%30.13 "HgN/A
1:00 AM49 °FCool.2 mph87%30.12 "HgN/A
12:00 AM50 °FCool.5 mph91%30.12 "HgN/A
11:00 PM
Sep 30
51 °FCool.7 mph88%30.11 "HgN/A
10:00 PM52 °FCool.6 mph88%30.11 "HgN/A
9:00 PM52 °FCool.6 mph88%30.10 "HgN/A
8:00 PM52 °FCool.7 mph88%30.09 "HgN/A
Weather by CustomWeather, © 2014

See weather overviewHow to use our weather pages